Weather History for West Plains, MO

Change the Weather History Date:

Wednesday, March 20, 2013

  Actual Average Record
Temperature  
Mean Temperature 36 °F 49 °F  
Max Temperature 46 °F 61 °F 83 °F (1952)
Min Temperature 26 °F 37 °F 10 °F (1965)
Degree Days  
Heating Degree Days 29 16  
Month to date heating degree days 470 391  
Since 1 July heating degree days 3782 3855  
Cooling Degree Days 0 0  
Month to date cooling degree days 0 0  
Year to date cooling degree days 0 0  
Moisture  
Dew Point 18 °F    
Average Humidity 51    
Maximum Humidity 85    
Minimum Humidity 16    
Precipitation  
Precipitation 0.00 in 0.14 in 2.90 in (1955)
Month to date precipitation 2.64 2.60  
Year to date precipitation 9.96 8.16  
Sea Level Pressure  
Sea Level Pressure 30.22 in    
Wind  
Wind Speed 9 mph (WNW)    
Max Wind Speed 29 mph    
Max Gust Speed 43 mph    
Visibility 10 miles    
Events      
T = Trace of Precipitation, MM = Missing Value Source: NWS Daily Summary

Daily Weather History Graph

Daily Weather History Graph

Search for Another Location

Airport:

Trip Planner

Search our weather history database for the weather conditions in past years. The results will help you decide how hot, cold, wet, or windy it might be!

Date:

Astronomy

Mar. 20, 2013 Rise Set
Actual Time 7:10 AM CDT 7:19 PM CDT
Civil Twilight 6:44 AM CDT 7:45 PM CDT
Nautical Twilight 6:14 AM CDT 8:15 PM CDT
Astronomical Twilight 5:44 AM CDT 8:46 PM CDT
Moon 1:03 PM CDT (3/20) 2:42 AM CDT (3/20)
Length of Visible Light 13h 00m
Length of Day
12h 08m
First Quarter, 59% of the Moon is Illuminated
Mar 20
First Quarter
Mar 27
Full
Apr 2
Last Quarter
Apr 10
New
Apr 18
First Quarter

Hourly Weather History & Observations

Time (CDT) Temp. Windchill Dew Point Humidity Pressure Visibility Wind Dir Wind Speed Gust Speed Precip Events Conditions
12:53 AM 33.1 °F 28.7 °F 26.1 °F 75% 30.24 in 10.0 mi SW 4.6 mph - N/A   Clear
1:53 AM 33.1 °F 27.7 °F 26.1 °F 75% 30.24 in 10.0 mi West 5.8 mph - N/A   Clear
2:53 AM 30.9 °F 26.2 °F 26.1 °F 82% 30.22 in 10.0 mi West 4.6 mph - N/A   Clear
3:53 AM 30.9 °F 26.2 °F 25.0 °F 79% 30.21 in 10.0 mi West 4.6 mph - N/A   Clear
4:53 AM 30.9 °F 24.3 °F 26.1 °F 82% 30.21 in 10.0 mi West 6.9 mph - N/A   Clear
5:53 AM 30.0 °F 25.2 °F 25.0 °F 82% 30.23 in 10.0 mi WSW 4.6 mph - N/A   Clear
6:53 AM 30.9 °F 26.2 °F 26.1 °F 82% 30.25 in 10.0 mi West 4.6 mph - N/A   Mostly Cloudy
7:39 AM 30.2 °F 26.7 °F 26.6 °F 86% 30.24 in 10.0 mi West 3.5 mph - N/A   Scattered Clouds
7:48 AM 30.2 °F 26.7 °F 26.6 °F 86% 30.24 in 10.0 mi WNW 3.5 mph - N/A   Mostly Cloudy
7:53 AM 30.9 °F - 27.0 °F 85% 30.27 in 10.0 mi Calm Calm - N/A   Mostly Cloudy
8:48 AM 35.6 °F 28.0 °F 28.4 °F 75% 30.27 in 10.0 mi NNW 10.4 mph 19.6 mph N/A   Scattered Clouds
8:53 AM 37.0 °F 29.8 °F 28.9 °F 73% 30.29 in 10.0 mi NNW 10.4 mph 17.3 mph N/A   Partly Cloudy
9:53 AM 37.0 °F 28.1 °F 26.1 °F 65% 30.31 in 10.0 mi NNW 15.0 mph 27.6 mph N/A   Mostly Cloudy
10:31 AM 37.4 °F 29.3 °F 24.8 °F 60% 30.28 in 10.0 mi NNW 12.7 mph 24.2 mph N/A   Mostly Cloudy
10:53 AM 39.9 °F 33.4 °F 23.0 °F 51% 30.30 in 10.0 mi NW 10.4 mph - N/A   Mostly Cloudy
11:53 AM 43.0 °F 34.5 °F 19.9 °F 40% 30.27 in 10.0 mi NW 19.6 mph 25.3 mph N/A   Clear
12:53 PM 44.1 °F 38.1 °F 15.1 °F 31% 30.25 in 10.0 mi NW 11.5 mph 23.0 mph N/A   Clear
1:53 PM 46.0 °F 39.3 °F 12.0 °F 25% 30.22 in 10.0 mi WNW 16.1 mph 25.3 mph N/A   Clear
2:53 PM 45.0 °F 36.6 °F 9.0 °F 23% 30.19 in 10.0 mi NW 21.9 mph 34.5 mph N/A   Clear
3:53 PM 44.1 °F 35.2 °F -0.0 °F 16% 30.17 in 10.0 mi WNW 23.0 mph 34.5 mph N/A   Clear
4:53 PM 43.0 °F 35.7 °F 5.0 °F 21% 30.15 in 10.0 mi NW 15.0 mph 25.3 mph N/A   Clear
5:53 PM 41.0 °F 33.5 °F 6.1 °F 24% 30.15 in 10.0 mi NW 13.8 mph - N/A   Clear
6:53 PM 37.9 °F 29.2 °F 9.0 °F 30% 30.15 in 10.0 mi NNW 15.0 mph 20.7 mph N/A   Clear
7:53 PM 34.0 °F 29.8 °F 7.0 °F 32% 30.15 in 10.0 mi NNW 4.6 mph - N/A   Clear
8:53 PM 30.9 °F 26.2 °F 8.1 °F 38% 30.15 in 10.0 mi NW 4.6 mph - N/A   Clear
9:53 PM 30.0 °F 25.2 °F 8.1 °F 40% 30.15 in 10.0 mi NW 4.6 mph - N/A   Clear
10:53 PM 28.0 °F - 8.1 °F 43% 30.14 in 10.0 mi Calm Calm - N/A   Clear
11:53 PM 26.1 °F - 9.0 °F 49% 30.15 in 10.0 mi Calm Calm - N/A   Clear